period_start,C,m1,H,J0,J1,J2,J3,J4,J5,JA,JB,JC,JD,JJ,JK,JN,#
2014-11-15 00:02:27,0.11,0.79,0.00,21.08,25.23,27.95,4.74,26.15,1004.41,2042.08,3137.41,3123.40,3360.87,349.68,345.51,10.85,0000 0000 0000 0000 000000
2014-11-15 00:07:28,0.11,0.79,0.00,21.10,25.25,27.98,4.67,26.12,1004.41,2042.06,3135.88,3122.47,3359.81,349.79,345.53,10.88,0000 0000 0000 0000 000000
2014-11-15 00:12:29,0.12,0.80,0.00,21.12,25.26,27.99,4.76,26.22,1004.41,2042.03,3134.55,3121.36,3358.67,349.74,345.48,10.91,0000 0000 0000 0000 000000
2014-11-15 00:17:31,0.12,0.80,0.00,21.16,25.28,28.00,4.75,26.19,1004.39,2042.03,3133.01,3120.26,3357.48,350.24,345.92,10.94,0000 0000 0000 0000 000000
2014-11-15 00:22:32,0.12,0.80,0.00,21.16,25.30,28.01,4.72,26.16,1004.25,2042.03,3131.45,3119.09,3356.16,350.32,345.96,10.97,0000 0000 0000 0000 000000
2014-11-15 00:27:33,0.13,0.81,0.00,21.18,25.31,28.06,4.71,26.08,1004.05,2042.00,3129.89,3117.98,3354.94,350.03,345.63,11.00,0000 0000 0000 0000 000000
2014-11-15 00:32:34,0.14,0.81,0.00,21.19,25.32,28.04,4.75,26.21,1004.12,2042.00,3128.40,3116.80,3353.71,350.04,345.61,11.03,0000 0000 0000 0000 000000
2014-11-15 00:37:35,0.14,0.81,0.00,21.21,25.35,28.08,4.75,26.21,1004.21,2042.00,3126.69,3115.61,3352.46,350.13,345.80,11.06,0000 0000 0000 0000 000000
2014-11-15 00:42:36,0.13,0.82,0.00,21.23,25.36,28.09,4.77,26.09,1004.35,2042.00,3124.93,3114.32,3350.98,350.13,345.57,11.09,0000 0000 0000 0000 000000
2014-11-15 00:47:37,0.13,0.82,0.00,21.23,25.37,28.10,4.70,26.18,1004.38,2041.99,3123.32,3113.09,3349.63,349.86,345.43,11.11,0000 0000 0000 0000 000000
2014-11-15 00:52:38,0.15,0.83,0.00,21.24,25.40,28.13,4.75,26.07,1004.40,2041.98,3121.59,3111.82,3348.35,349.71,345.28,11.14,0000 0000 0000 0000 000000
2014-11-15 00:57:39,0.14,0.83,0.00,21.29,25.41,28.13,4.84,26.18,1004.40,2041.97,3119.95,3110.61,3346.95,350.05,345.62,11.17,0000 0000 0000 0000 000000
2014-11-15 01:02:40,0.12,0.84,0.00,21.30,25.42,28.15,4.80,26.11,1004.40,2041.97,3118.34,3109.47,3345.70,350.37,345.80,11.20,0000 0000 0000 0000 000000
2014-11-15 01:07:41,0.13,0.84,0.00,21.32,25.44,28.16,4.64,26.07,1004.41,2041.95,3116.67,3108.31,3344.47,349.38,344.85,11.23,0000 0000 0000 0000 000000
2014-11-15 01:12:43,0.11,0.84,0.00,21.32,25.46,28.18,4.71,26.17,1004.41,2041.73,3114.79,3106.84,3342.91,349.72,345.25,11.26,0000 0000 0000 0000 000000
2014-11-15 01:17:44,0.12,0.85,0.00,21.35,25.47,28.19,4.75,26.13,1004.43,2041.44,3113.00,3105.59,3341.53,350.03,345.45,11.29,0000 0000 0000 0000 000000
2014-11-15 01:22:44,0.11,0.85,0.00,21.38,25.49,28.20,4.77,26.14,1004.66,2041.44,3111.26,3104.35,3340.09,349.90,345.42,11.32,0000 0000 0000 0000 000000
2014-11-15 01:27:45,0.13,0.85,0.00,21.39,25.51,28.22,4.80,26.25,1004.75,2041.15,3109.38,3102.90,3338.66,349.94,345.38,11.35,0000 0000 0000 0000 000000
2014-11-15 01:32:46,0.14,0.86,0.00,21.41,25.52,28.24,4.72,26.19,1004.70,2041.06,3107.55,3101.52,3337.21,350.15,345.61,11.38,0000 0000 0000 0000 000000
2014-11-15 01:37:47,0.15,0.86,0.00,21.41,25.54,28.26,4.76,26.23,1004.46,2041.04,3105.64,3100.19,3335.67,350.22,345.60,11.41,0000 0000 0000 0000 000000
2014-11-15 01:42:49,0.16,0.87,0.00,21.41,25.55,28.29,4.76,26.15,1004.41,2041.01,3103.66,3098.72,3334.11,349.81,345.17,11.44,0000 0000 0000 0000 000000
2014-11-15 01:47:49,0.16,0.87,0.00,21.42,25.57,28.31,4.83,26.29,1004.36,2041.00,3101.74,3097.37,3332.67,350.46,345.79,11.47,0000 0000 0000 0000 000000
2014-11-15 01:52:51,0.15,0.88,0.00,21.45,25.59,28.32,4.70,26.19,1004.39,2041.00,3099.85,3095.97,3331.23,349.77,345.12,11.50,0000 0000 0000 0000 000000
2014-11-15 01:57:52,0.16,0.88,0.00,21.45,25.60,28.36,4.73,26.24,1004.41,2041.00,3098.04,3094.61,3329.67,349.82,345.14,11.52,0000 0000 0000 0000 000000
2014-11-15 02:02:53,0.14,0.89,0.00,21.45,25.62,28.37,4.66,26.08,1004.47,2041.00,3096.19,3093.23,3328.18,349.72,345.09,11.55,0000 0000 0000 0000 000000
2014-11-15 02:07:54,0.15,0.89,0.00,21.46,25.63,28.41,4.74,26.17,1004.68,2040.99,3094.38,3091.88,3326.81,349.63,345.17,11.58,0000 0000 0000 0000 000000
2014-11-15 02:12:56,0.16,0.90,0.00,21.48,25.65,28.41,4.76,26.18,1004.51,2040.98,3092.47,3090.47,3325.33,350.48,345.96,11.61,0000 0000 0000 0000 000000
2014-11-15 02:17:57,0.16,0.90,0.00,21.50,25.67,28.44,4.66,26.11,1004.43,2040.97,3090.59,3089.09,3323.75,349.83,345.10,11.64,0000 0000 0000 0000 000000
2014-11-15 02:22:58,0.15,0.91,0.00,21.49,25.67,28.44,4.72,26.17,1004.73,2040.96,3088.75,3087.77,3322.36,349.88,345.26,11.67,0000 0000 0000 0000 000000
2014-11-15 02:27:59,0.15,0.91,0.00,21.50,25.70,28.48,4.77,26.08,1004.95,2040.92,3086.87,3086.44,3320.90,349.97,345.64,11.70,0000 0000 0000 0000 000000
2014-11-15 02:33:00,0.13,0.91,0.00,21.52,25.71,28.51,4.75,25.99,1004.99,2040.91,3085.13,3085.16,3319.55,350.23,345.50,11.73,0000 0000 0000 0000 000000
2014-11-15 02:38:02,0.14,0.92,0.00,21.55,25.72,28.46,4.76,26.12,1005.12,2040.81,3083.32,3083.78,3318.03,350.15,345.59,11.76,0000 0000 0000 0000 000000
2014-11-15 02:43:03,0.15,0.92,0.00,21.56,25.73,28.47,4.92,26.20,1005.19,2040.69,3081.51,3082.53,3316.63,350.28,345.77,11.79,0000 0000 0000 0000 000000
2014-11-15 02:48:04,0.09,0.93,0.00,21.57,25.75,28.48,4.81,26.09,1005.28,2040.55,3079.75,3081.19,3315.20,350.34,345.89,11.82,0000 0000 0000 0000 000000
2014-11-15 02:53:05,0.13,0.93,0.00,21.59,25.76,28.52,4.67,26.01,1005.32,2040.30,3078.00,3079.86,3313.72,350.39,345.88,11.85,0000 0000 0000 0000 000000
2014-11-15 02:58:06,0.12,0.93,0.00,21.61,25.77,28.52,4.76,25.99,1005.36,2040.06,3076.14,3078.56,3312.28,350.41,345.76,11.88,0000 0000 0000 0000 000000
2014-11-15 03:03:07,0.14,0.94,0.00,21.64,25.79,28.55,4.73,26.00,1005.23,2040.04,3074.39,3077.21,3310.81,349.81,345.21,11.90,0000 0000 0000 0000 000000
2014-11-15 03:08:09,0.15,0.94,0.00,21.67,25.80,28.54,4.66,25.98,1005.08,2040.02,3072.63,3075.87,3309.36,349.29,344.64,11.93,0000 0000 0000 0000 000000
2014-11-15 03:13:10,0.15,0.95,0.00,21.68,25.82,28.53,4.75,25.97,1005.04,2040.00,3070.92,3074.59,3307.86,349.91,345.21,11.96,0000 0000 0000 0000 000000
2014-11-15 03:18:11,0.15,0.95,0.00,21.68,25.82,28.55,4.70,25.97,1004.98,2040.00,3069.18,3073.26,3306.42,350.28,345.65,11.99,0000 0000 0000 0000 000000
2014-11-15 03:23:12,0.15,0.96,0.00,21.67,25.85,28.63,4.71,25.93,1005.26,2040.00,3067.41,3071.89,3305.00,350.00,345.36,12.02,0000 0000 0000 0000 000000
2014-11-15 03:28:13,0.17,0.96,0.00,21.68,25.86,28.59,4.82,26.02,1005.38,2040.00,3065.44,3070.59,3303.49,350.18,345.45,12.05,0000 0000 0000 0000 000000
2014-11-15 03:33:14,0.16,0.97,0.00,21.69,25.87,28.60,4.76,26.06,1005.39,2039.99,3063.56,3069.25,3301.84,350.00,345.52,12.08,0000 0000 0000 0000 000000
2014-11-15 03:38:16,0.18,0.97,0.00,21.72,25.89,28.60,4.80,26.04,1005.39,2039.99,3061.58,3067.71,3300.30,350.12,345.31,12.11,0000 0000 0000 0000 000000
2014-11-15 03:43:17,0.15,0.98,0.00,21.74,25.90,28.63,4.79,25.88,1005.39,2039.98,3059.72,3066.43,3298.77,350.05,345.36,12.14,0000 0000 0000 0000 000000
2014-11-15 03:48:18,0.15,0.98,0.00,21.74,25.92,28.69,4.75,25.82,1005.39,2039.98,3057.95,3065.03,3297.36,350.13,345.61,12.17,0000 0000 0000 0000 000000
2014-11-15 03:53:20,0.16,0.98,0.00,21.74,25.92,28.69,4.78,25.92,1005.39,2039.96,3056.14,3063.69,3295.82,350.35,345.66,12.20,0000 0000 0000 0000 000000
2014-11-15 03:58:21,0.15,0.99,0.00,21.78,25.95,28.69,4.76,25.98,1005.39,2039.88,3054.20,3062.26,3294.26,350.22,345.16,12.23,0000 0000 0000 0000 000000
2014-11-15 04:03:22,0.17,0.99,0.00,21.80,25.96,28.69,4.78,26.06,1005.39,2039.86,3052.20,3060.82,3292.75,349.66,344.91,12.26,0000 0000 0000 0000 000000
2014-11-15 04:08:23,0.14,1.00,0.00,21.80,25.97,28.71,4.72,25.99,1005.31,2039.76,3050.26,3059.44,3291.21,349.76,344.98,12.29,0000 0000 0000 0000 000000
2014-11-15 04:13:24,0.16,1.00,0.00,21.80,25.98,28.77,4.68,25.98,1005.39,2039.61,3048.19,3057.87,3289.58,349.47,344.62,12.31,0000 0000 0000 0000 000000
2014-11-15 04:18:25,0.16,1.01,0.00,21.82,26.00,28.77,4.79,25.91,1005.75,2039.59,3046.18,3056.49,3288.04,350.11,345.35,12.34,0000 0000 0000 0000 000000
2014-11-15 04:23:26,0.12,1.01,0.00,21.83,26.01,28.79,4.74,25.94,1005.87,2039.21,3044.15,3055.02,3286.45,349.87,345.28,12.37,0000 0000 0000 0000 000000
2014-11-15 04:28:27,0.14,1.02,0.00,21.86,26.02,28.79,4.87,26.02,1005.86,2039.06,3042.22,3053.64,3284.90,350.40,345.74,12.40,0000 0000 0000 0000 000000
2014-11-15 04:33:28,0.15,1.02,0.00,21.87,26.04,28.79,4.65,25.89,1005.87,2039.05,3040.34,3052.24,3283.41,349.32,344.65,12.43,0000 0000 0000 0000 000000
2014-11-15 04:38:29,0.18,1.03,0.00,21.89,26.05,28.81,4.76,25.93,1005.88,2039.03,3038.30,3050.76,3281.83,350.26,345.60,12.46,0000 0000 0000 0000 000000
2014-11-15 04:43:31,0.15,1.03,0.00,21.90,26.06,28.82,4.85,26.00,1005.88,2039.04,3036.51,3049.51,3280.48,350.14,345.52,12.49,0000 0000 0000 0000 000000
2014-11-15 04:48:32,0.15,1.03,0.00,21.91,26.07,28.85,4.79,25.97,1006.04,2039.01,3034.68,3048.15,3278.93,350.33,345.67,12.52,0000 0000 0000 0000 000000
2014-11-15 04:53:33,0.18,1.04,0.00,21.93,26.09,28.88,4.77,26.01,1006.12,2039.00,3032.74,3046.67,3277.43,350.17,345.48,12.55,0000 0000 0000 0000 000000
2014-11-15 04:58:34,0.15,1.04,0.00,21.95,26.10,28.84,4.78,26.00,1006.19,2039.00,3030.94,3045.38,3275.87,350.22,345.54,12.58,0000 0000 0000 0000 000000
2014-11-15 05:03:35,0.14,1.05,0.00,21.99,26.12,28.82,4.78,25.97,1006.28,2039.00,3029.15,3043.97,3274.41,350.25,345.72,12.61,0000 0000 0000 0000 000000
2014-11-15 05:08:36,0.18,1.05,0.00,22.01,26.13,28.85,4.66,25.93,1006.29,2039.00,3027.31,3042.65,3272.86,349.79,345.17,12.64,0000 0000 0000 0000 000000
2014-11-15 05:13:37,0.15,1.06,0.00,22.02,26.15,28.86,4.79,26.03,1006.35,2038.98,3025.42,3041.20,3271.36,350.31,345.61,12.67,0000 0000 0000 0000 000000
2014-11-15 05:18:38,0.17,1.06,0.00,22.04,26.16,28.89,4.75,26.06,1006.36,2038.98,3023.49,3039.85,3269.85,350.13,345.43,12.70,0000 0000 0000 0000 000000
2014-11-15 05:23:39,0.16,1.07,0.00,22.05,26.17,28.88,4.88,26.10,1006.36,2038.97,3021.62,3038.45,3268.41,350.75,345.91,12.72,0000 0000 0000 0000 000000
2014-11-15 05:28:40,0.14,1.07,0.00,22.10,26.20,28.87,4.74,25.99,1006.37,2038.85,3019.79,3037.00,3266.82,349.84,345.08,12.75,0000 0000 0000 0000 000000
2014-11-15 05:33:41,0.14,1.08,0.00,22.10,26.20,28.88,4.69,26.04,1006.45,2038.79,3017.97,3035.69,3265.46,349.56,344.96,12.78,0000 0000 0000 0000 000000
2014-11-15 05:38:42,0.11,1.08,0.00,22.13,26.22,28.91,4.81,26.13,1006.60,2038.55,3016.06,3034.42,3263.96,350.03,345.30,12.81,0000 0000 0000 0000 000000
2014-11-15 05:43:43,0.12,1.08,0.00,22.15,26.24,28.94,4.82,26.08,1006.83,2038.19,3014.21,3032.95,3262.63,350.58,345.99,12.84,0000 0000 0000 0000 000000
2014-11-15 05:48:44,0.14,1.09,0.00,22.14,26.25,28.96,4.83,26.05,1006.77,2038.17,3012.45,3031.70,3261.29,350.69,346.02,12.87,0000 0000 0000 0000 000000
2014-11-15 05:53:45,0.16,1.09,0.00,22.16,26.27,28.97,4.77,26.06,1006.79,2038.08,3010.64,3030.40,3259.81,350.31,345.50,12.90,0000 0000 0000 0000 000000
2014-11-15 05:58:46,0.14,1.10,0.00,22.21,26.28,29.00,4.69,26.00,1006.85,2038.06,3008.84,3029.04,3258.38,349.95,345.22,12.93,0000 0000 0000 0000 000000
2014-11-15 06:03:48,0.16,1.10,0.00,22.24,26.30,29.01,4.80,26.00,1006.85,2038.03,3007.14,3027.67,3256.84,349.96,345.19,12.96,0000 0000 0000 0000 000000
2014-11-15 06:08:49,0.15,1.11,0.00,22.24,26.32,29.01,4.81,26.08,1006.85,2038.01,3005.35,3026.25,3255.31,350.38,345.60,12.99,0000 0000 0000 0000 000000
2014-11-15 06:13:50,0.17,1.11,0.00,22.27,26.34,29.02,4.79,25.98,1006.95,2038.00,3003.44,3024.87,3253.80,349.96,345.39,13.02,0000 0000 0000 0000 000000
2014-11-15 06:18:51,0.17,1.12,0.00,22.28,26.35,29.06,4.72,26.02,1007.30,2038.00,3001.45,3023.50,3252.24,349.56,344.91,13.05,0000 0000 0000 0000 000000
2014-11-15 06:23:53,0.16,1.12,0.00,22.28,26.37,29.07,4.73,25.98,1007.34,2038.00,2999.56,3022.09,3250.73,350.06,345.43,13.08,0000 0000 0000 0000 000000
2014-11-15 06:28:54,0.16,1.13,0.00,22.29,26.39,29.09,4.79,25.98,1007.36,2038.00,2997.72,3020.73,3249.32,350.22,345.63,13.10,0000 0000 0000 0000 000000
2014-11-15 06:33:55,0.16,1.13,0.00,22.31,26.40,29.09,4.69,25.93,1007.66,2037.98,2995.92,3019.42,3247.82,349.84,345.10,13.13,0000 0000 0000 0000 000000
2014-11-15 06:38:56,0.17,1.14,0.00,22.35,26.42,29.11,4.75,25.96,1007.71,2037.97,2993.96,3017.89,3246.26,350.01,345.34,13.16,0000 0000 0000 0000 000000
2014-11-15 06:43:57,0.15,1.14,0.00,22.37,26.44,29.12,4.77,25.96,1007.75,2037.98,2992.34,3016.64,3244.72,350.41,345.74,13.19,0000 0000 0000 0000 000000
2014-11-15 06:48:58,0.12,1.15,0.00,22.39,26.46,29.14,4.79,25.92,1007.83,2037.86,2990.49,3015.29,3243.22,349.82,345.21,13.22,0000 0000 0000 0000 000000
2014-11-15 06:53:59,0.11,1.15,0.00,22.41,26.47,29.18,4.77,25.92,1007.83,2037.51,2988.76,3013.88,3241.71,350.36,345.62,13.25,0000 0000 0000 0000 000000
2014-11-15 06:59:01,0.12,1.15,0.00,22.40,26.50,29.17,4.66,25.95,1007.83,2037.25,2986.91,3012.55,3240.27,349.45,344.85,13.28,0000 0000 0000 0000 000000
2014-11-15 07:04:02,0.13,1.16,0.00,22.42,26.51,29.20,4.72,25.91,1007.83,2037.06,2985.18,3011.25,3238.77,349.79,345.18,13.31,0000 0000 0000 0000 000000
2014-11-15 07:09:03,0.15,1.16,0.00,22.45,26.53,29.24,4.76,25.96,1007.84,2037.03,2983.57,3009.87,3237.35,350.16,345.50,13.34,0000 0000 0000 0000 000000
2014-11-15 07:14:04,0.18,1.17,0.00,22.48,26.55,29.23,4.73,25.94,1007.94,2037.00,2981.56,3008.53,3235.77,349.63,344.97,13.37,0000 0000 0000 0000 000000
2014-11-15 07:19:06,0.14,1.17,0.00,22.50,26.57,29.25,4.76,25.90,1008.09,2037.00,2979.76,3007.28,3234.31,350.26,345.63,13.40,0000 0000 0000 0000 000000
2014-11-15 07:24:07,0.15,1.17,0.00,22.53,26.58,29.27,4.74,25.87,1008.24,2037.00,2978.02,3006.02,3232.83,350.11,345.48,13.43,0000 0000 0000 0000 000000
2014-11-15 07:29:08,0.16,1.18,0.00,22.55,26.60,29.29,4.75,25.97,1008.31,2037.00,2976.47,3004.73,3231.37,349.80,345.18,13.46,0000 0000 0000 0000 000000
2014-11-15 07:34:09,0.16,1.18,0.00,22.54,26.62,29.29,4.72,25.97,1008.31,2036.98,2974.74,3003.43,3229.73,349.87,345.31,13.49,0000 0000 0000 0000 000000
2014-11-15 07:39:10,0.16,1.19,0.00,22.58,26.64,29.34,4.73,26.07,1008.38,2036.91,2972.91,3001.88,3228.11,349.81,345.10,13.51,0000 0000 0000 0000 000000
2014-11-15 07:44:12,0.08,1.19,0.00,22.57,26.65,29.36,4.75,25.88,1008.52,2036.55,2971.20,3000.57,3226.57,349.82,345.25,13.54,0000 0000 0000 0000 000000
2014-11-15 07:49:13,0.10,1.20,0.00,22.57,26.67,29.36,4.79,26.02,1008.58,2036.09,2969.41,2999.20,3225.00,350.46,345.72,13.57,0000 0000 0000 0000 000000
2014-11-15 07:54:14,0.17,1.20,0.00,22.58,26.69,29.40,4.72,26.13,1008.75,2036.02,2967.56,2997.78,3223.53,350.05,345.57,13.60,0000 0000 0000 0000 000000
2014-11-15 07:59:15,0.16,1.20,0.00,22.60,26.70,29.41,4.84,26.13,1008.79,2036.00,2965.77,2996.48,3221.94,350.57,346.08,13.63,0000 0000 0000 0000 000000
2014-11-15 08:04:16,0.16,1.21,0.00,22.62,26.72,29.42,4.77,26.13,1008.80,2036.00,2963.98,2995.06,3220.49,350.23,345.68,13.66,0000 0000 0000 0000 000000
2014-11-15 08:09:18,0.16,1.21,0.00,22.63,26.73,29.46,4.78,26.14,1008.80,2036.00,2962.13,2993.68,3218.95,350.06,345.59,13.69,0000 0000 0000 0000 000000
2014-11-15 08:14:19,0.15,1.22,0.00,22.64,26.75,29.46,4.74,26.10,1008.81,2036.00,2960.43,2992.46,3217.57,349.73,345.26,13.72,0000 0000 0000 0000 000000
2014-11-15 08:19:21,0.15,1.22,0.00,22.66,26.77,29.47,4.77,26.03,1008.83,2035.99,2958.66,2991.17,3216.07,349.85,345.30,13.75,0000 0000 0000 0000 000000
2014-11-15 08:24:22,0.17,1.23,0.00,22.65,26.77,29.51,4.76,26.16,1009.05,2035.97,2956.94,2989.81,3214.58,350.06,345.58,13.78,0000 0000 0000 0000 000000
2014-11-15 08:29:23,0.12,1.23,0.00,22.66,26.80,29.53,4.70,26.05,1009.08,2035.79,2955.05,2988.43,3212.94,349.55,345.08,13.81,0000 0000 0000 0000 000000
2014-11-15 08:34:24,0.11,1.24,0.00,22.66,26.80,29.59,4.73,26.13,1008.85,2035.39,2953.23,2986.99,3211.51,349.68,345.17,13.84,0000 0000 0000 0000 000000
2014-11-15 08:39:25,0.14,1.24,0.00,22.69,26.82,29.62,4.78,26.21,1008.97,2035.14,2951.33,2985.57,3209.89,350.24,345.74,13.87,0000 0000 0000 0000 000000
2014-11-15 08:44:26,0.14,1.24,0.00,22.69,26.83,29.66,4.74,26.18,1009.22,2035.06,2949.56,2984.33,3208.49,349.32,345.02,13.90,0000 0000 0000 0000 000000
2014-11-15 08:49:27,0.16,1.25,0.00,22.69,26.85,29.66,4.74,26.16,1009.28,2035.01,2947.65,2982.90,3206.94,349.69,345.23,13.92,0000 0000 0000 0000 000000
2014-11-15 08:54:28,0.17,1.25,0.00,22.67,26.85,29.65,4.76,26.19,1009.29,2035.00,2945.80,2981.59,3205.54,350.25,345.86,13.95,0000 0000 0000 0000 000000
2014-11-15 08:59:29,0.15,1.26,0.00,22.69,26.87,29.65,4.75,26.24,1009.29,2035.00,2944.01,2980.22,3204.02,350.11,345.47,13.98,0000 0000 0000 0000 000000
2014-11-15 09:04:30,0.16,1.26,0.00,22.69,26.87,29.76,4.82,26.13,1009.30,2035.00,2942.32,2978.88,3202.58,350.62,346.16,14.01,0000 0000 0000 0000 000000
2014-11-15 09:09:32,0.16,1.27,0.00,22.69,26.89,29.77,4.84,26.38,1009.33,2035.00,2940.52,2977.57,3201.03,350.16,345.71,14.04,0000 0000 0000 0000 000000
2014-11-15 09:14:33,0.16,1.27,0.00,22.68,26.90,29.77,4.72,26.24,1009.56,2035.00,2938.64,2976.23,3199.56,349.62,345.26,14.07,0000 0000 0000 0000 000000
2014-11-15 09:19:34,0.17,1.28,0.00,22.69,26.90,29.80,4.75,26.14,1009.78,2034.99,2936.81,2974.84,3198.22,349.83,345.43,14.10,0000 0000 0000 0000 000000
2014-11-15 09:24:35,0.17,1.28,0.00,22.70,26.92,29.81,4.68,26.16,1009.79,2034.99,2935.05,2973.53,3196.76,349.86,345.56,14.13,0000 0000 0000 0000 000000
2014-11-15 09:29:36,0.14,1.29,0.00,22.71,26.92,29.82,4.78,26.18,1009.79,2034.97,2933.15,2972.15,3195.26,349.54,345.40,14.16,0000 0000 0000 0000 000000
2014-11-15 09:34:37,0.18,1.29,0.00,22.69,26.92,29.84,4.84,26.13,1009.81,2034.97,2931.37,2970.83,3193.77,350.54,346.25,14.19,0000 0000 0000 0000 000000
2014-11-15 09:39:39,0.14,1.30,0.00,22.69,26.94,29.86,4.80,26.30,1009.92,2034.87,2929.42,2969.43,3192.24,349.88,345.49,14.22,0000 0000 0000 0000 000000
2014-11-15 09:44:39,0.16,1.30,0.00,22.68,26.95,29.86,4.83,26.18,1010.14,2034.78,2927.63,2968.03,3190.72,350.27,346.02,14.25,0000 0000 0000 0000 000000
2014-11-15 09:49:41,0.18,1.31,0.00,22.69,26.95,29.89,4.76,26.17,1009.93,2034.83,2925.78,2966.70,3189.32,350.24,345.99,14.28,0000 0000 0000 0000 000000
2014-11-15 09:54:42,0.13,1.31,0.00,22.67,26.96,29.92,4.75,26.21,1009.99,2034.64,2923.93,2965.44,3187.79,349.99,345.79,14.30,0000 0000 0000 0000 000000
2014-11-15 09:59:43,0.11,1.32,0.00,22.68,26.97,29.91,4.79,26.14,1010.23,2034.51,2922.10,2964.10,3186.41,349.78,345.65,14.33,0000 0000 0000 0000 000000
2014-11-15 10:04:44,0.17,1.32,0.00,22.67,26.97,29.92,4.74,26.13,1010.26,2034.35,2920.21,2962.71,3184.90,349.81,345.78,14.36,0000 0000 0000 0000 000000
2014-11-15 10:09:45,0.14,1.32,0.00,22.66,26.97,29.92,4.78,26.09,1010.28,2034.34,2918.59,2961.49,3183.51,350.08,345.86,14.39,0000 0000 0000 0000 000000
2014-11-15 10:14:46,0.12,1.33,0.00,22.69,26.98,29.92,4.81,26.13,1010.34,2034.15,2916.78,2960.18,3182.00,350.17,346.00,14.42,0000 0000 0000 0000 000000
2014-11-15 10:19:47,0.17,1.33,0.00,22.65,27.00,29.95,4.76,26.00,1010.51,2034.09,2915.08,2958.85,3180.64,350.09,346.13,14.45,0000 0000 0000 0000 000000
2014-11-15 10:24:48,0.16,1.34,0.00,22.65,27.00,29.96,4.75,25.95,1010.71,2034.09,2913.31,2957.64,3179.18,350.17,346.11,14.48,0000 0000 0000 0000 000000
2014-11-15 10:29:50,0.15,1.34,0.00,22.64,27.00,29.94,4.76,26.07,1010.76,2034.04,2911.55,2956.30,3177.70,350.06,346.08,14.51,0000 0000 0000 0000 000000
2014-11-15 10:34:51,0.15,1.35,0.00,22.63,27.00,29.95,4.78,26.04,1010.76,2034.05,2909.72,2955.00,3176.39,349.82,345.87,14.54,0000 0000 0000 0000 000000
2014-11-15 10:39:52,0.18,1.35,0.00,22.63,27.00,30.01,4.76,26.11,1010.77,2034.01,2907.83,2953.57,3174.85,350.00,346.12,14.57,0000 0000 0000 0000 000000
2014-11-15 10:44:53,0.14,1.36,0.00,22.66,27.00,29.98,4.81,26.13,1010.77,2034.01,2906.20,2952.43,3173.56,350.36,346.32,14.60,0000 0000 0000 0000 000000
2014-11-15 10:49:54,0.16,1.36,0.00,22.67,27.00,29.99,4.81,25.99,1010.83,2034.02,2904.39,2951.14,3172.11,350.15,346.14,14.63,0000 0000 0000 0000 000000
2014-11-15 10:54:55,0.18,1.37,0.00,22.64,27.02,29.98,4.78,26.01,1011.20,2034.01,2902.51,2949.75,3170.62,349.73,346.17,14.66,0000 0000 0000 0000 000000
2014-11-15 10:59:56,0.16,1.37,0.00,22.65,27.02,29.96,4.76,26.00,1011.24,2034.01,2900.73,2948.49,3169.18,350.10,346.29,14.69,0000 0000 0000 0000 000000
2014-11-15 11:04:57,0.16,1.38,0.00,22.66,27.02,29.99,4.73,25.98,1011.24,2034.01,2898.87,2947.13,3167.70,349.78,346.04,14.71,0000 0000 0000 0000 000000
2014-11-15 11:09:58,0.16,1.38,0.00,22.66,27.02,29.96,4.74,26.02,1011.24,2034.00,2897.13,2945.82,3166.26,349.71,346.01,14.74,0000 0000 0000 0000 000000
2014-11-15 11:15:00,0.17,1.39,0.00,22.64,27.02,29.99,4.74,26.01,1011.26,2034.00,2895.38,2944.52,3164.79,350.12,346.46,14.77,0000 0000 0000 0000 000000
2014-11-15 11:20:01,0.15,1.39,0.00,22.66,27.02,29.98,4.78,25.99,1011.39,2034.00,2893.63,2943.34,3163.42,349.67,345.98,14.80,0000 0000 0000 0000 000000
2014-11-15 11:25:03,0.17,1.40,0.00,22.66,27.02,29.99,4.77,26.07,1011.54,2034.00,2891.80,2942.02,3161.92,349.79,346.24,14.83,0000 0000 0000 0000 000000
2014-11-15 11:30:04,0.16,1.40,0.00,22.66,27.02,29.98,4.76,26.05,1011.59,2034.00,2890.14,2940.71,3160.54,349.96,346.31,14.86,0000 0000 0000 0000 000000
2014-11-15 11:35:05,0.15,1.40,0.00,22.68,27.02,30.00,4.78,26.04,1011.71,2034.00,2888.41,2939.52,3159.22,349.61,346.04,14.89,0000 0000 0000 0000 000000
2014-11-15 11:40:06,0.17,1.41,0.00,22.69,27.02,29.98,4.79,26.15,1011.73,2034.00,2886.56,2938.21,3157.68,350.03,346.45,14.92,0000 0000 0000 0000 000000
2014-11-15 11:45:08,0.16,1.42,0.00,22.70,27.03,29.99,4.79,26.14,1011.73,2034.00,2884.82,2936.94,3156.33,350.52,346.88,14.95,0000 0000 0000 0000 000000
2014-11-15 11:50:09,0.17,1.42,0.00,22.69,27.04,29.98,4.81,26.07,1011.73,2034.00,2882.99,2935.63,3154.85,350.21,346.61,14.98,0000 0000 0000 0000 000000
2014-11-15 11:55:10,0.16,1.43,0.00,22.69,27.05,29.99,4.76,26.05,1011.73,2034.00,2881.21,2934.34,3153.43,350.03,346.11,15.01,0000 0000 0000 0000 000000
2014-11-15 12:00:11,0.16,1.43,0.00,22.68,27.05,30.01,4.80,26.21,1011.73,2034.00,2879.43,2933.00,3151.97,350.75,347.07,15.04,0000 0000 0000 0000 000000
2014-11-15 12:05:13,0.18,1.44,0.00,22.67,27.05,30.00,4.78,26.22,1011.73,2034.00,2877.64,2931.60,3150.47,350.05,346.44,15.07,0000 0000 0000 0000 000000
2014-11-15 12:10:14,0.16,1.44,0.00,22.67,27.05,30.01,4.79,26.30,1011.73,2034.00,2875.77,2930.26,3149.01,350.41,346.66,15.10,0000 0000 0000 0000 000000
2014-11-15 12:15:15,0.18,1.45,0.00,22.64,27.05,30.02,4.81,26.30,1011.73,2034.00,2873.91,2928.86,3147.53,350.06,346.43,15.12,0000 0000 0000 0000 000000
2014-11-15 12:20:16,0.17,1.45,0.00,22.63,27.05,30.02,4.81,26.23,1011.77,2034.00,2872.05,2927.57,3146.02,350.22,346.65,15.15,0000 0000 0000 0000 000000
2014-11-15 12:25:17,0.16,1.46,0.00,22.63,27.05,30.03,4.75,26.15,1012.01,2034.00,2870.28,2926.24,3144.58,349.83,346.31,15.18,0000 0000 0000 0000 000000
2014-11-15 12:30:19,0.17,1.46,0.00,22.62,27.05,30.04,4.76,26.15,1012.17,2033.98,2868.47,2924.82,3143.08,350.06,346.67,15.21,0000 0000 0000 0000 000000
2014-11-15 12:35:20,0.18,1.47,0.00,22.60,27.05,30.05,4.77,26.12,1012.22,2033.99,2866.62,2923.58,3141.61,350.02,346.85,15.24,0000 0000 0000 0000 000000
2014-11-15 12:40:21,0.17,1.47,0.00,22.61,27.05,30.05,4.78,26.16,1012.24,2033.98,2864.69,2922.13,3140.07,350.16,346.81,15.27,0000 0000 0000 0000 000000
2014-11-15 12:45:23,0.16,1.48,0.00,22.59,27.05,30.07,4.84,26.07,1012.42,2033.99,2862.94,2920.85,3138.68,350.07,346.82,15.30,0000 0000 0000 0000 000000
2014-11-15 12:50:24,0.16,1.48,0.00,22.57,27.05,30.07,4.77,26.13,1012.59,2033.99,2861.24,2919.65,3137.33,350.07,346.92,15.33,0000 0000 0000 0000 000000
2014-11-15 12:55:25,0.17,1.49,0.00,22.59,27.05,30.06,4.77,26.13,1012.55,2033.99,2859.43,2918.33,3135.82,350.21,346.95,15.36,0000 0000 0000 0000 000000
2014-11-15 13:00:26,0.15,1.49,0.00,22.60,27.05,30.07,4.78,26.09,1012.70,2033.99,2857.62,2917.05,3134.63,349.98,346.98,15.39,0000 0000 0000 0000 000000